Aérodrome :
LOGIN :

S'inscrire | Disclaimer

   EN    FR    IT 

 










Légende :    VFR   VFR Marginal   IFR   IFR Intensif   IFR Très Intensif
Visi : 
Plafond : 
>= 8 km
>= 3000ft
5 à 8 km
1000 à 3000 ft
1500m à 5 km
500 à 1000 ft
800 à 1500m
200 à 500 ft
< 800m
< 200 ft
Symboles :   Orages  Brouillard  Fortes neiges  Fortes précipitations  Vent > 20 kt
SIGMETs :   Divers  Orages  Givrage  Turbulence  Onde Orograph.  Cendres Volcan.







- Altitude de l'aérodrome : 218 ft
- Code IATA : LBG
- Voir les cartes d'approche


LFPB - Paris / Le Bourget

DERNIER METAR :
  • 152230Z AUTO 36004KT CAVOK 18/13 Q1019 NOSIG

METARs EXPIRÉS :
  • 152200Z AUTO 36003KT CAVOK 18/13 Q1019 NOSIG
  • 152130Z AUTO 36003KT CAVOK 19/14 Q1019 NOSIG
  • 152100Z AUTO 05003KT CAVOK 20/13 Q1019 NOSIG
  • 152030Z AUTO 03003KT CAVOK 20/13 Q1019 NOSIG
  • 152000Z AUTO 09005KT CAVOK 20/13 Q1019 NOSIG

TAF TAF LFPB
Valide du 15 à 18h jusqu'au 16 à 18h UTC


151700Z 1518/1618 30003KT CAVOK
BECMG 1616/1618 33015KT
ATIS : +33 1 48 62 43 92
Pas de NOTAMs connus pour ce terrain.



MET'MAP, la Météo Aéronautique d'un coup d'oeil ! - Copyright ORBIFLY Décembre 2007 - Disclaimer

ORBIFLY MET'MAP TEAM :

Programmation & Développement : Alexandra Zaïnal
Conception & Développement : Baudouin d'Aumeries
Co-Programmation & Développement : Marc-Olivier Méhu
Soutien technique & logistique : Manuel Goepfert

Contact : metmap@orbifly.com




SOURCES & CREDITS :

   NOAA